NOAA 16 DEB

Satellite information

Favourite Embed

Satellite Type and Status

DEBRISIN ORBIT

Key statistics

Satellite NOAA 16 DEB at a glance.

Uptime

9158

Days in orbit

Revolutions

≈ 14.4

Per day

Orbit

SSO

Sun Synchronous Orbit

Inclination

98.9

Latest

Satellite identification and parameters

Extended collection of information and parameters for NOAA 16 DEB.

Object identification

Identified? True

Debris? True

Object name: NOAA 16 DEB

International designator: 2000-055NY

Object number (NORAD): 41659

Object ID (CCSDS): 41659

Country: UNITED STATES OF AMERICA (US)

Current information (Y/N): Y

RCS size: SMALL

Orbital parameters

Period: 99.745 minutes

Inclination: 98.8718 deg

SMA: 7124.516 km

Apoapsis: 756.709 km

Periapsis: 736.053 km

RAAN: 57.342 deg

Eccentricy: 0.0014496

Argument of periapsis: 150.2942 deg

Mean anomaly: 209.9073 deg

Mean motion: 14.4367595 rev/day

Mean motion (dot): 0.00011818 rev/day2

B* drag term: 0.0034846 1/REarth

Two-line elements (TLE)

Creation date: Oct. 17, 2025, 6:56 a.m.

Reference frame: TEME

Reference center: EARTH

Epoch: Oct. 16, 2025, 4:12 a.m. UTC

TLE line 0: 0 NOAA 16 DEB

TLE line 1: 1 41659U 00055NY 25289.17546097 .00011818 00000-0 34846-2 0 9996

TLE line 2: 2 41659 98.8718 57.3420 0014496 150.2942 209.9073 14.43675950492005

Live tracking on map

Real-time ground track for satellite NOAA 16 DEB.

In-orbit conjunctions

A list of the most updated potential collisions computed for object NOAA 16 DEB.

Target Orbit TCA Probability of collision Miss distance Type
COSMOS 2251 DEB LEO 2025-08-12 01:44:37 0.0001519879 30.0 (m) DEBRIS
IRIDIUM 69 LEO 2025-05-29 22:34:54 0.0003434169 488.0 (m) PAYLOAD
SL-8 R/B LEO 2025-05-19 03:13:31 0.0001086187 475.0 (m) ROCKET BODY
CBERS 2B SSO 2025-01-21 14:54:14 0.0001769063 250.0 (m) PAYLOAD
CZ-6A DEB LEO 2025-01-06 02:43:32 0.0001151978 715.0 (m) DEBRIS

Associated space launch

The NOAA K, L and M POES satellites begin the fifth generation of improved environmental monitoring in support of NOAA missions. The instrument payload has significant improvements and additions/deletions. The instrument changes have effected the spacecraft subsystems and data formats.

NOAA 16 DEB was lifted into orbit during the mission ‘Titan II SLV | NOAA 16’, on board a Titan II SLV space rocket.

The launch took place on Sept. 21, 2000, 10:22 a.m. from Space Launch Complex 4W.

For more information about the launch, click the button.

Launch to space Titan II SLV | NOAA 16
Titan II SLV | NOAA 16

Agency: N/A

Status: Launch Successful

Launch date: Sept. 21, 2000, 10:22 a.m. UTC

Rocket: Titan II SLV

Launch pad: Space Launch Complex 4W

Location: Vandenberg SFB, CA, USA

...

Latest news about this satellite

There are no fresh news available about this satellite. Check back as we update our databases every day.


Newsletter sign-up

Weekly statistics, charts and insights to help you stay on top of the space industry.